Location: Nitra
(0.0000°N, 18.0833°E)
Time: 19:13:52
(UTC+02:00)

A-11 Canister half - Pass Details

Date: 03 April 2023
Orbit: 1526 x 1682 km, 47.3° (Epoch: 08 June)

Event Time Altitude Azimuth Distance (km) Brightness Sun altitude
Rises 21:50:06 0° 340° (NNW) 4,780 11.9 -44.5°
Reaches altitude 10° 21:53:47 10° 351° (N) 3,772 11.1 -45.4°
Enters shadow 21:55:15 15° 357° (N) 3,411 10.8 -45.8°
Maximum altitude 22:01:46 30° 48° (NE) 2,503 - -47.4°
Drops below altitude 10° 22:09:33 10° 106° (ESE) 3,701 - -49.3°
Sets 22:13:05 0° 116° (ESE) 4,676 - -50.2°
